Reading, PA

5:48 PM EDT on October 18, 2019 (GMT -0400)
Reading Regional-Spaatz

Weather History for KRDG - August, 2019

Change the Weather History Date:

Friday, August 9, 2019

  Actual Average Record
Temperature  
Mean Temperature 75 °F 74 °F  
Max Temperature 85 °F 84 °F 99 °F (2001)
Min Temperature 65 °F 63 °F 51 °F (1989)
Degree Days  
Heating Degree Days 0 0  
Month to date heating degree days 0 0  
Since 1 June heating degree days 16 25  
Since 1 July heating degree days 0 1  
Cooling Degree Days 10 9  
Month to date cooling degree days 116 81  
Year to date cooling degree days 854 633  
Since 1 June cooling degree days 749 573  
Growing Degree Days 25 (Base 50)    
Moisture  
Dew Point 64 °F    
Average Humidity 72    
Maximum Humidity 100    
Minimum Humidity 44    
Precipitation  
Precipitation 0.00 in 0.11 in 2.58 in (1942)
Month to date precipitation 0.86 1.05  
Year to date precipitation 39.15 26.37  
Sea Level Pressure  
Sea Level Pressure 29.79 in    
Wind  
Wind Speed 6 mph (WNW)    
Max Wind Speed 20 mph    
Max Gust Speed 26 mph    
Visibility 10 miles    
Events      
T = Trace of Precipitation, MM = Missing Value Source: NWS Daily Summary

Daily Weather History Graph

Daily Weather History Graph

Search for Another Location

Airport or City:

Astronomy

Aug. 09, 2019 Rise Set
Actual Time 6:08 AM EDT 8:09 PM EDT
Civil Twilight 5:38 AM EDT 8:39 PM EDT
Nautical Twilight 5:02 AM EDT 9:15 PM EDT
Astronomical Twilight 4:23 AM EDT 9:54 PM EDT
Moon 3:48 PM EDT (8/9) 1:04 AM EDT (8/9)
Length of Visible Light 15h 00m
Length of Day
14h 00m
Waxing Gibbous, 70% of the Moon is Illuminated
Aug 9
Waxing Gibbous
Aug 15
Full
Aug 23
Last Quarter
Aug 30
New
Sep 5
First Quarter

Hourly Weather History & Observations

Time (EDT) Temp. Heat Index Dew Point Humidity Pressure Visibility Wind Dir Wind Speed Gust Speed Precip Events Conditions
12:54 AM 68.0 °F - 66.9 °F 96% 29.76 in 10.0 mi WSW 3.5 mph - N/A   Clear
1:54 AM 70.0 °F - 66.9 °F 90% 29.76 in 10.0 mi West 4.6 mph - N/A   Clear
2:54 AM 69.1 °F - 66.9 °F 93% 29.77 in 10.0 mi WNW 4.6 mph - N/A   Clear
3:54 AM 66.0 °F - 66.0 °F 100% 29.77 in 10.0 mi Calm Calm - N/A   Clear
4:54 AM 66.0 °F - 66.0 °F 100% 29.77 in 10.0 mi Calm Calm - N/A   Clear
5:54 AM 66.0 °F - 66.0 °F 100% 29.79 in 10.0 mi Calm Calm - N/A   Scattered Clouds
6:54 AM 66.9 °F - 66.0 °F 97% 29.80 in 10.0 mi Calm Calm - N/A   Clear
7:54 AM 70.0 °F - 68.0 °F 93% 29.81 in 10.0 mi Calm Calm - N/A   Clear
8:54 AM 73.9 °F - 68.0 °F 82% 29.81 in 10.0 mi WSW 4.6 mph - N/A   Clear
9:54 AM 78.1 °F - 66.9 °F 68% 29.80 in 10.0 mi WNW 10.4 mph - N/A   Partly Cloudy
10:54 AM 79.0 °F - 69.1 °F 72% 29.81 in 10.0 mi NW 9.2 mph - N/A   Partly Cloudy
11:54 AM 80.1 °F 82.3 °F 66.9 °F 64% 29.81 in 10.0 mi WNW 10.4 mph - N/A   Scattered Clouds
12:54 PM 82.9 °F 84.0 °F 63.0 °F 51% 29.79 in 10.0 mi West 9.2 mph - N/A   Scattered Clouds
1:54 PM 84.0 °F 84.4 °F 61.0 °F 46% 29.78 in 10.0 mi West 13.8 mph 19.6 mph N/A   Scattered Clouds
2:22 PM 82.0 °F 83.4 °F 64.0 °F 54% 29.77 in 10.0 mi NNW 12.7 mph - N/A   Scattered Clouds
2:54 PM 82.9 °F 84.4 °F 64.0 °F 53% 29.77 in 10.0 mi NNW 10.4 mph - N/A   Scattered Clouds
3:54 PM 82.9 °F 84.0 °F 63.0 °F 51% 29.76 in 10.0 mi NW 13.8 mph - N/A   Partly Cloudy
4:54 PM 82.9 °F 84.0 °F 63.0 °F 51% 29.75 in 10.0 mi NNW 11.5 mph 19.6 mph N/A   Scattered Clouds
5:54 PM 82.9 °F 83.3 °F 61.0 °F 47% 29.76 in 10.0 mi NW 9.2 mph - N/A   Clear
6:54 PM 81.0 °F 81.1 °F 57.9 °F 45% 29.77 in 10.0 mi NW 11.5 mph - N/A   Clear
7:54 PM 77.0 °F - 59.0 °F 54% 29.79 in 10.0 mi NW 5.8 mph - N/A   Clear
8:54 PM 75.0 °F - 59.0 °F 57% 29.81 in 10.0 mi West 4.6 mph - N/A   Scattered Clouds
9:54 PM 71.1 °F - 61.0 °F 70% 29.82 in 10.0 mi WNW 3.5 mph - N/A   Clear
10:54 PM 68.0 °F - 62.1 °F 81% 29.84 in 10.0 mi Calm Calm - N/A   Partly Cloudy
11:54 PM 68.0 °F - 62.1 °F 81% 29.85 in 10.0 mi Calm Calm - N/A   Scattered Clouds